Flag for Canada Weather past 2 weeks in Owen Sound, Ontario, Canada

Now
54 °F

Overcast.


Feels Like: 51 °F
Forecast: 50 / 69 °F
Wind: 9 mph from Northwest

Location: Wiarton

Current Time: May 28, 2015 at 2:34:00 AM

Latest Report: May 28, 2015 at 2:00 AM


Visibility: 15 mi

Pressure: 30.03 "Hg

Humidity: 88%

Dew point: 50 °F

Location of Owen SoundLocation

Historic Weather in Owen Sound — Graph

°F

Owen Sound temperature yesterday

Maximum temperature yesterday: 77 °F (at 3:00 PM)
Minimum temperature yesterday: 54 °F (at 11:00 PM)
Average temperature yesterday: 68 °F

Past Weeks' High & Low Weather Summary

 TemperatureHumidityPressure
High79 °F (May 18, 4:00 PM)100% (May 13, 1:00 AM)30.50 "Hg (May 13, 1:00 AM)
Low32 °F (May 14, 3:00 AM)28% (May 23, 3:00 PM)29.82 "Hg (May 27, 2:00 AM)
Average54 °F72%30.09 "Hg
* Reported May 13 1:00 AM — May 28 1:00 AM, Owen Sound, Weather by CustomWeather, © 2015

Note: Actual official high and low records may vary slightly from our data, if they occured in-between our weather recording intervals... More about our weather records

Advertising

Owen Sound weather history for previous 24 hours

 ConditionsComfort  
Time TempWeatherWind HumidityBarometerVisibility
1:00 AM
Thu, May 28
54 °FOvercast.7 mph88%30.01 "Hg15 mi
12:00 AM52 °FOvercast.10 mph88%29.99 "Hg15 mi
11:00 PM
Wed, May 27
54 °FPassing clouds.10 mph88%29.98 "Hg15 mi
10:00 PM55 °FPassing clouds.6 mph88%29.98 "Hg15 mi
9:00 PM55 °FPartly sunny.7 mph82%29.95 "Hg15 mi
8:00 PM57 °FBroken clouds.9 mph82%29.93 "Hg15 mi
7:00 PM66 °FPartly sunny.14 mph73%29.88 "Hg15 mi
6:00 PM68 °FBroken clouds.20 mph69%29.87 "Hg15 mi
4:00 PM77 °FScattered clouds.25 mph54%29.85 "Hg15 mi
3:00 PM77 °FPartly sunny.20 mph57%29.86 "Hg15 mi
2:00 PM75 °FScattered clouds.24 mph65%29.87 "Hg15 mi
1:00 PM73 °FPartly sunny.21 mph69%29.88 "Hg15 mi
12:00 PM73 °FScattered clouds.29 mph65%29.87 "Hg15 mi
11:00 AM72 °FBroken clouds.24 mph73%29.87 "Hg15 mi
10:00 AM72 °FPartly sunny.23 mph69%29.86 "Hg15 mi
9:00 AM70 °FPartly sunny.17 mph78%29.88 "Hg15 mi
8:00 AM70 °FBroken clouds.18 mph78%29.87 "Hg15 mi
7:00 AM68 °FBroken clouds.16 mph83%29.87 "Hg15 mi
6:00 AM68 °FPartly cloudy.16 mph88%29.86 "Hg15 mi
5:00 AM68 °FPassing clouds.16 mph88%29.83 "Hg15 mi
4:00 AM68 °FPassing clouds.15 mph88%29.82 "Hg15 mi
3:00 AM68 °FPassing clouds.14 mph88%29.83 "Hg15 mi
2:00 AM70 °FPassing clouds.18 mph83%29.82 "Hg15 mi
Weather by CustomWeather, © 2015

See weather overviewHow to use our weather pages